Miscellaneous Local Product
Issued by NWS Hastings, NE

Home | Current Version | Previous Version | Graphics & Text | Print | Product List | Glossary On
Versions: 1 2 3 4 5 6 7 8 9 10 11 12 13 14 15 16 17 18 19 20 21 22 23 24 25 26 27 28 29 30 31 32 33 34 35 36 37 38 39 40 41 42 43 44 45 46 47 48 49 50
000
AXUS43 KGID 191302
MISGRI

GID CWA HOURLY WEATHER ROUNDUP
NATIONAL WEATHER SERVICE HASTINGS NE
800 AM CDT SUN OCT 19 2014

NOTE: "FAIR" INDICATES FEW OR NO CLOUDS BELOW 12,000 FEET WITH NO
SIGNIFICANT WEATHER AND/OR OBSTRUCTIONS TO VISIBILITY.

...SOUTH CENTRAL NEBRASKA...

CITY           SKY/WX    TMP DP  RH WIND       PRES   REMARKS
GRAND ISLAND   CLEAR     47  40  76 S13G22    30.04F
HASTINGS       CLEAR     43  38  82 S8        30.06F
KEARNEY        CLEAR     45  39  81 S9        30.06S
ORD            CLEAR     40  37  89 CALM      30.01S
YORK           CLEAR     41  39  93 S8        30.07F
AURORA         CLEAR     43  39  85 S7        30.06S
LEXINGTON      CLEAR     43  40  91 S9        30.03F
HOLDREGE       CLEAR     40  38  92 CALM      30.05S
HEBRON         CLEAR     43  39  86 CALM      30.10S

...NEBRASKA PANHANDLE...

CITY           SKY/WX    TMP DP  RH WIND       PRES   REMARKS
CHADRON        CLEAR     38  36  92 W3        30.04R
ALLIANCE       PTCLDY    35  33  92 NW3       30.03R
SCOTTSBLUFF    CLEAR     40  37  89 NW10      30.05S WCI  33
SIDNEY         CLEAR     37  34  89 NW6       30.05R WCI  32

...WESTERN AND NORTH CENTRAL NEBRASKA...

CITY           SKY/WX    TMP DP  RH WIND       PRES   REMARKS
VALENTINE      CLEAR     40  37  89 W6        29.98R
AINSWORTH      CLEAR     45  40  81 SW9       29.97S
ONEILL         PTCLDY    46  43  88 SW10      29.97F
BROKEN BOW     CLEAR     44  40  85 S7        30.01F
IMPERIAL       CLEAR     39  36  89 W3        30.02S
NORTH PLATTE   CLEAR     42  38  85 S5        30.02S
MCCOOK         CLEAR     40  37  89 SE6       30.04S

...EASTERN NEBRASKA...

CITY           SKY/WX    TMP DP  RH WIND       PRES   REMARKS
NORFOLK        PTCLDY    46  40  79 S12       30.02F
SO SIOUX CITY  CLEAR     46  40  79 SE6       30.03F
TEKAMAH        CLEAR     43  40  89 S8        30.06F
COLUMBUS       CLEAR     46  37  71 SW3       30.06S
ALBION         CLEAR     43  38  82 SE3       30.02F
OMAHA EPPLEY   PTCLDY    43  39  86 SE10      30.10F
OFFUTT AFB     CLEAR     38  38 100 E3        30.09F
MILLARD        CLEAR     42  39  90 SE3       30.09S
LINCOLN        CLEAR     43  38  82 S6        30.10F
NEBRASKA CITY  CLEAR     41  40  98 S9        30.11F
BEATRICE       CLEAR     42  40  92 S7        30.11F
FALLS CITY     PTCLDY    41  39  93 S7        30.13F

...NORTHERN KANSAS...

CITY           SKY/WX    TMP DP  RH WIND       PRES   REMARKS
GOODLAND       CLEAR     42  41  96 S7        30.03F
HILL CITY      CLEAR     49  42  77 S6        30.06S
NORTON         SUNNY     41  36  81 S3        30.04S
PHILLIPSBURG   CLEAR     43  43 100 NE6       30.07S
SMITH CENTER   CLEAR     37  37 100 E8        30.09S FOG     WCI  31
BELOIT         CLEAR     45  43  93 SE5       30.10S
HAYS           CLEAR     45  37  76 S5        30.08F
RUSSELL        CLEAR     46  42  86 S14       30.07F
CONCORDIA      PTCLDY    49  44  83 S9        30.10F
SALINA         MOCLDY    45  41  86 S5        30.13S
TOPEKA         PTCLDY    41  40  96 CALM      30.17S



USA.gov is the U.S. government's official web portal to all federal, state and local government web resources and services.